VXP398 KCHS-KMCO

Flight info

Callsign VXP398
Flight time N/A
Altitude 36000
Route LGRHD3 GIPPL Q85 LPERD GTOUT1
Aircraft B738/M-SDE2E3FGHIRWXY/LB1

Departure

Time N/A
Airport Charleston International Airport (KCHS)

Arrival

Time 2026-04-25 17:19
Airport Orlando International Airport (KMCO)
Time Latitude Longitude Altitude Speed Heading
2026-04-25 16:57 30.43071 -81.26962 29274 ft 505 kts 176°
2026-04-25 16:57 30.39547 -81.26653 28496 ft 501 kts 176°
2026-04-25 16:58 30.36061 -81.26356 27723 ft 499 kts 176°
2026-04-25 16:58 30.32614 -81.26072 26948 ft 493 kts 177°
2026-04-25 16:58 30.29164 -81.25797 26179 ft 497 kts 177°
2026-04-25 16:58 30.25742 -81.25532 25421 ft 498 kts 177°
2026-04-25 16:59 30.22278 -81.25267 24657 ft 495 kts 177°
2026-04-25 16:59 30.18844 -81.25008 23884 ft 489 kts 177°
2026-04-25 16:59 30.15454 -81.24754 23113 ft 481 kts 177°
2026-04-25 16:59 30.12164 -81.24507 22376 ft 473 kts 177°
2026-04-25 17:00 30.08910 -81.24264 21642 ft 467 kts 177°
2026-04-25 17:00 30.05689 -81.24024 20906 ft 462 kts 178°
2026-04-25 17:00 30.02494 -81.23786 20154 ft 457 kts 178°
2026-04-25 17:00 29.99308 -81.23549 19432 ft 451 kts 178°
2026-04-25 17:01 29.96188 -81.23315 19053 ft 447 kts 178°
2026-04-25 17:01 29.93066 -81.23082 18966 ft 447 kts 178°
2026-04-25 17:01 29.89944 -81.22850 18961 ft 448 kts 178°
2026-04-25 17:01 29.86820 -81.22620 18949 ft 450 kts 179°
2026-04-25 17:02 29.83705 -81.22389 18942 ft 448 kts 178°
2026-04-25 17:02 29.80577 -81.22157 18934 ft 448 kts 178°
2026-04-25 17:02 29.77477 -81.21928 18940 ft 449 kts 178°
2026-04-25 17:02 29.74322 -81.21694 18944 ft 448 kts 178°
2026-04-25 17:03 29.71264 -81.21466 18937 ft 430 kts 178°
2026-04-25 17:03 29.68342 -81.21237 18931 ft 410 kts 178°
2026-04-25 17:03 29.65494 -81.20997 18942 ft 410 kts 178°
2026-04-25 17:03 29.62638 -81.20750 18951 ft 410 kts 178°
2026-04-25 17:04 29.59780 -81.20501 18824 ft 410 kts 178°
2026-04-25 17:04 29.56982 -81.20255 18326 ft 394 kts 178°
2026-04-25 17:04 29.54256 -81.20015 17703 ft 381 kts 179°
2026-04-25 17:04 29.51657 -81.19789 17090 ft 375 kts 178°
2026-04-25 17:05 29.49049 -81.19568 16469 ft 372 kts 179°
2026-04-25 17:05 29.43928 -81.19134 15243 ft 368 kts 178°
2026-04-25 17:05 29.41375 -81.18917 14626 ft 365 kts 178°
2026-04-25 17:06 29.38826 -81.18700 14009 ft 362 kts 178°
2026-04-25 17:06 29.36338 -81.18488 13399 ft 359 kts 178°
2026-04-25 17:06 29.33820 -81.18276 12786 ft 355 kts 178°
2026-04-25 17:06 29.31373 -81.18066 12212 ft 348 kts 178°
2026-04-25 17:07 29.28992 -81.17859 11981 ft 345 kts 178°
2026-04-25 17:07 29.26563 -81.17645 11958 ft 348 kts 178°
2026-04-25 17:07 29.24119 -81.17428 11952 ft 347 kts 178°
2026-04-25 17:07 29.21698 -81.17213 11953 ft 347 kts 178°
2026-04-25 17:08 29.19281 -81.16947 11955 ft 349 kts 173°
2026-04-25 17:08 29.16907 -81.16318 11958 ft 351 kts 165°
2026-04-25 17:08 29.14590 -81.15396 11956 ft 351 kts 160°
2026-04-25 17:08 29.12320 -81.14368 11957 ft 351 kts 159°
2026-04-25 17:09 29.10056 -81.13322 11954 ft 341 kts 159°
2026-04-25 17:09 29.07886 -81.12341 11799 ft 327 kts 160°
2026-04-25 17:09 29.05769 -81.11407 11295 ft 327 kts 160°
2026-04-25 17:09 29.03604 -81.10486 10685 ft 330 kts 162°
2026-04-25 17:10 29.01452 -81.09643 10138 ft 329 kts 163°
2026-04-25 17:10 28.99274 -81.08831 9657 ft 326 kts 163°
2026-04-25 17:10 28.97102 -81.08150 9151 ft 322 kts 171°
2026-04-25 17:10 28.94936 -81.07787 8971 ft 307 kts 175°
2026-04-25 17:11 28.92859 -81.07552 8958 ft 292 kts 176°
2026-04-25 17:11 28.90823 -81.07345 8774 ft 293 kts 177°
2026-04-25 17:11 28.88789 -81.07299 8307 ft 292 kts 186°
2026-04-25 17:11 28.86861 -81.07891 7936 ft 285 kts 208°
2026-04-25 17:12 28.85200 -81.09126 7536 ft 281 kts 218°
2026-04-25 17:12 28.83667 -81.10480 7073 ft 278 kts 219°
2026-04-25 17:12 28.82130 -81.11814 6959 ft 275 kts 217°
2026-04-25 17:12 28.80587 -81.13092 6959 ft 275 kts 216°
2026-04-25 17:13 28.79020 -81.14352 6958 ft 275 kts 216°
2026-04-25 17:13 28.78499 -81.14767 6958 ft 275 kts 216°
2026-04-25 17:13 28.75813 -81.16821 6948 ft 274 kts 211°
2026-04-25 17:13 28.74155 -81.17831 6756 ft 269 kts 207°
2026-04-25 17:14 28.72484 -81.18773 6242 ft 269 kts 207°
2026-04-25 17:14 28.70816 -81.19739 5665 ft 269 kts 208°
2026-04-25 17:14 28.69169 -81.20731 5132 ft 261 kts 209°
2026-04-25 17:14 28.67591 -81.21701 4956 ft 257 kts 209°
2026-04-25 17:15 28.66017 -81.22675 4800 ft 259 kts 209°
2026-04-25 17:15 28.64407 -81.23672 4353 ft 260 kts 209°
2026-04-25 17:15 28.62847 -81.24635 3942 ft 255 kts 208°
2026-04-25 17:15 28.61323 -81.25574 3652 ft 246 kts 208°
2026-04-25 17:16 28.59810 -81.26505 3185 ft 244 kts 208°
2026-04-25 17:16 28.58358 -81.27399 2956 ft 227 kts 208°
2026-04-25 17:16 28.57002 -81.28200 2944 ft 210 kts 204°
2026-04-25 17:16 28.55643 -81.28581 2947 ft 199 kts 182°
2026-04-25 17:17 28.54253 -81.28500 2960 ft 194 kts 175°
2026-04-25 17:17 28.52920 -81.28399 2774 ft 191 kts 177°
2026-04-25 17:17 28.51610 -81.28351 2456 ft 180 kts 180°
2026-04-25 17:17 28.50389 -81.28422 2130 ft 171 kts 183°
2026-04-25 17:18 28.49240 -81.28472 1778 ft 160 kts 180°
2026-04-25 17:18 28.48156 -81.28410 1495 ft 154 kts 175°
2026-04-25 17:18 28.47084 -81.28291 1082 ft 154 kts 175°
2026-04-25 17:18 28.46045 -81.28266 726 ft 148 kts 180°
2026-04-25 17:19 28.45013 -81.28262 326 ft 146 kts 179°
2026-04-25 17:19 28.43973 -81.28252 108 ft 143 kts 178°
2026-04-25 17:19 28.43137 -81.28247 87 ft 89 kts 180°
2026-04-25 17:19 28.42746 -81.28243 86 ft 41 kts 179°
2026-04-25 17:20 28.42610 -81.28261 86 ft 0 kts 198°